TimeCST,TemperatureF,Dew PointF,Humidity,Sea Level PressureIn,VisibilityMPH,Wind Direction,Wind SpeedMPH,Gust SpeedMPH,PrecipitationIn,Events,Conditions,WindDirDegrees,DateUTC
12:53 AM,39.0,26.1,60,30.34,10.0,North,5.8,-,N/A,,Clear,10,2013-01-07 06:53:00
1:53 AM,37.9,26.1,62,30.33,10.0,North,6.9,-,N/A,,Clear,360,2013-01-07 07:53:00
2:53 AM,36.0,27.0,70,30.32,10.0,North,6.9,-,N/A,,Clear,10,2013-01-07 08:53:00
3:53 AM,30.9,26.1,82,30.32,10.0,North,3.5,-,N/A,,Clear,360,2013-01-07 09:53:00
4:53 AM,33.1,26.1,75,30.32,10.0,North,3.5,-,N/A,,Clear,350,2013-01-07 10:53:00
5:53 AM,32.0,26.1,79,30.32,10.0,North,4.6,-,N/A,,Clear,360,2013-01-07 11:53:00
6:53 AM,30.9,27.0,85,30.34,10.0,North,4.6,-,N/A,,Clear,350,2013-01-07 12:53:00
7:53 AM,33.1,27.0,78,30.34,10.0,NNE,3.5,-,N/A,,Clear,30,2013-01-07 13:53:00
8:53 AM,37.0,30.0,76,30.35,10.0,Calm,Calm,-,N/A,,Clear,0,2013-01-07 14:53:00
9:53 AM,45.0,36.0,71,30.35,10.0,East,9.2,-,N/A,,Clear,100,2013-01-07 15:53:00
10:53 AM,48.0,34.0,58,30.34,10.0,ESE,11.5,-,N/A,,Clear,120,2013-01-07 16:53:00
11:53 AM,51.1,35.1,54,30.32,10.0,SE,9.2,-,N/A,,Clear,130,2013-01-07 17:53:00
12:50 PM,51.8,33.8,50,30.26,1.5,East,9.2,-,N/A,,Haze,90,2013-01-07 18:50:00
1:53 PM,53.1,32.0,45,30.23,10.0,ESE,5.8,-,N/A,,Clear,110,2013-01-07 19:53:00
2:53 PM,54.0,32.0,43,30.20,10.0,East,9.2,-,N/A,,Clear,90,2013-01-07 20:53:00
3:53 PM,54.0,30.9,41,30.18,10.0,ESE,9.2,-,N/A,,Clear,110,2013-01-07 21:53:00
5:53 PM,48.9,32.0,52,30.17,10.0,East,4.6,-,N/A,,Clear,90,2013-01-07 23:53:00
6:53 PM,48.0,33.1,56,30.17,10.0,East,5.8,-,N/A,,Partly Cloudy,90,2013-01-08 00:53:00
7:53 PM,46.9,34.0,61,30.18,10.0,East,3.5,-,N/A,,Mostly Cloudy,100,2013-01-08 01:53:00
8:53 PM,48.9,35.1,59,30.14,10.0,East,8.1,-,N/A,,Overcast,100,2013-01-08 02:53:00
9:53 PM,46.9,34.0,61,30.15,10.0,Calm,Calm,-,N/A,,Partly Cloudy,0,2013-01-08 03:53:00
10:53 PM,46.9,36.0,66,30.14,10.0,SE,4.6,-,N/A,,Mostly Cloudy,140,2013-01-08 04:53:00
11:13 PM,46.4,35.6,66,30.14,10.0,Calm,Calm,-,N/A,,Mostly Cloudy,0,2013-01-08 05:13:00
11:22 PM,46.4,35.6,66,30.14,10.0,SE,3.5,-,N/A,,Mostly Cloudy,130,2013-01-08 05:22:00
11:53 PM,46.9,36.0,66,30.13,10.0,ESE,4.6,-,N/A,,Overcast,110,2013-01-08 05:53:00